TimeEDT,TemperatureF,Dew PointF,Humidity,Sea Level PressureIn,VisibilityMPH,Wind Direction,Wind SpeedMPH,Gust SpeedMPH,PrecipitationIn,Events,Conditions,WindDirDegrees,DateUTC
12:36 AM,59.0,55.4,88,29.95,10.0,NNW,4.6,-,N/A,,Mostly Cloudy,340,2013-06-19 04:36:00
12:50 AM,59.0,55.4,88,29.95,10.0,North,3.5,-,N/A,,Overcast,350,2013-06-19 04:50:00
12:53 AM,59.0,55.9,90,29.92,10.0,NNW,4.6,-,N/A,,Mostly Cloudy,340,2013-06-19 04:53:00
1:16 AM,59.0,55.4,88,29.95,10.0,North,4.6,-,N/A,,Overcast,360,2013-06-19 05:16:00
1:53 AM,57.9,54.0,87,29.92,10.0,North,9.2,-,N/A,,Overcast,360,2013-06-19 05:53:00
2:53 AM,57.0,53.1,87,29.95,10.0,Calm,Calm,-,N/A,,Overcast,0,2013-06-19 06:53:00
3:44 AM,55.4,51.8,88,29.97,10.0,North,6.9,-,N/A,,Overcast,350,2013-06-19 07:44:00
3:53 AM,55.9,51.1,84,29.96,10.0,North,6.9,-,N/A,,Overcast,360,2013-06-19 07:53:00
4:05 AM,55.4,51.8,88,29.97,10.0,North,9.2,-,N/A,,Mostly Cloudy,360,2013-06-19 08:05:00
4:53 AM,54.0,48.9,83,29.96,10.0,North,6.9,-,N/A,,Clear,10,2013-06-19 08:53:00
5:53 AM,53.1,48.0,83,29.97,10.0,North,6.9,-,N/A,,Clear,10,2013-06-19 09:53:00
6:53 AM,54.0,46.9,77,30.00,10.0,North,9.2,-,N/A,,Clear,10,2013-06-19 10:53:00
7:53 AM,57.0,46.9,69,30.03,10.0,North,9.2,-,N/A,,Clear,10,2013-06-19 11:53:00
8:53 AM,61.0,46.9,60,30.06,10.0,North,9.2,-,N/A,,Clear,10,2013-06-19 12:53:00
9:53 AM,62.1,46.0,56,30.08,10.0,NNE,9.2,-,N/A,,Clear,20,2013-06-19 13:53:00
10:53 AM,64.9,43.0,45,30.09,10.0,NNE,9.2,17.3,N/A,,Mostly Cloudy,20,2013-06-19 14:53:00
11:53 AM,66.0,43.0,43,30.09,10.0,NE,12.7,17.3,N/A,,Clear,40,2013-06-19 15:53:00
12:53 PM,68.0,43.0,40,30.09,10.0,NNE,8.1,-,N/A,,Clear,30,2013-06-19 16:53:00
1:53 PM,68.0,42.1,39,30.09,10.0,East,6.9,-,N/A,,Scattered Clouds,90,2013-06-19 17:53:00
2:53 PM,70.0,45.0,41,30.09,10.0,Variable,5.8,-,N/A,,Mostly Cloudy,0,2013-06-19 18:53:00
3:53 PM,70.0,44.1,39,30.09,10.0,NW,10.4,-,N/A,,Clear,320,2013-06-19 19:53:00
4:53 PM,70.0,44.1,39,30.10,10.0,West,8.1,-,N/A,,Partly Cloudy,280,2013-06-19 20:53:00
5:53 PM,69.1,42.1,38,30.10,10.0,North,5.8,-,N/A,,Clear,350,2013-06-19 21:53:00
6:53 PM,68.0,43.0,40,30.11,10.0,NW,6.9,-,N/A,,Clear,320,2013-06-19 22:53:00
7:53 PM,66.0,44.1,45,30.12,10.0,NW,5.8,-,N/A,,Clear,310,2013-06-19 23:53:00
8:53 PM,59.0,46.9,64,30.14,10.0,NNW,4.6,-,N/A,,Clear,340,2013-06-20 00:53:00
9:53 PM,55.9,46.0,69,30.17,10.0,NNW,3.5,-,N/A,,Clear,340,2013-06-20 01:53:00
10:53 PM,57.9,43.0,58,30.18,10.0,North,5.8,-,N/A,,Clear,10,2013-06-20 02:53:00
11:53 PM,57.0,43.0,59,30.19,10.0,NNE,5.8,-,N/A,,Clear,20,2013-06-20 03:53:00